Total_Precipitation_Accumulation
0.35 0.35 0.38 0.35 0.37 0.39 0.44 0.58 0.77 0.58 0.21 0.08 0.07 0.10 0.15 0.17 0.18 0.17 0.14 0.15 0.20 0.27 0.35 0.37 0.37 0.46 0.69 1.21 2.14 3.45 4.12 3.51 2.61 2.23 2.13 2.31 2.64 3.07
0.41 0.43 0.43 0.41 0.40 0.41 0.46 0.49 0.62 0.73 0.48 0.13 0.08 0.11 0.21 0.22 0.20 0.18 0.16 0.18 0.18 0.20 0.24 0.30 0.37 0.44 0.56 0.79 1.29 2.12 3.34 4.01 3.61 2.92 2.50 2.54 2.73 3.02
0.43 0.47 0.47 0.46 0.48 0.44 0.47 0.50 0.49 0.55 0.53 0.20 0.10 0.10 0.20 0.25 0.23 0.17 0.16 0.17 0.16 0.18 0.22 0.29 0.37 0.46 0.59 0.74 0.98 1.43 2.16 3.17 3.82 3.64 3.15 2.83 2.75 2.81
0.44 0.46 0.47 0.45 0.46 0.42 0.44 0.46 0.44 0.41 0.45 0.31 0.13 0.11 0.16 0.23 0.30 0.30 0.24 0.22 0.20 0.21 0.25 0.33 0.43 0.50 0.58 0.71 0.90 1.17 1.57 2.14 2.92 3.42 3.38 3.07 2.81 2.79
0.46 0.48 0.47 0.46 0.45 0.40 0.43 0.42 0.37 0.34 0.37 0.38 0.22 0.14 0.16 0.19 0.31 0.41 0.35 0.30 0.27 0.25 0.27 0.31 0.38 0.47 0.52 0.61 0.78 0.99 1.20 1.44 1.89 2.67 3.23 3.16 2.97 2.85
0.43 0.40 0.44 0.52 0.50 0.47 0.49 0.43 0.39 0.43 0.47 0.52 0.39 0.25 0.24 0.26 0.37 0.49 0.52 0.46 0.38 0.31 0.30 0.31 0.36 0.48 0.51 0.49 0.51 0.61 0.82 1.14 1.49 1.96 2.63 3.04 2.94 2.82
0.38 0.35 0.41 0.52 0.55 0.69 0.79 0.69 0.68 0.77 0.75 0.77 0.69 0.55 0.47 0.48 0.52 0.52 0.66 0.65 0.54 0.44 0.38 0.32 0.33 0.33 0.35 0.37 0.39 0.46 0.59 0.79 1.13 1.52 1.97 2.47 2.81 2.86
0.44 0.36 0.36 0.47 0.48 0.56 0.70 0.79 0.88 1.02 1.07 1.07 1.02 0.89 0.65 0.57 0.56 0.66 0.75 0.89 0.85 0.61 0.56 0.45 0.42 0.44 0.37 0.35 0.39 0.44 0.54 0.69 0.94 1.27 1.62 1.95 2.35 2.74
0.44 0.39 0.38 0.44 0.50 0.53 0.59 0.61 0.65 0.80 1.01 1.12 1.16 0.87 0.68 0.61 0.74 0.90 0.90 0.99 0.94 0.84 0.93 0.80 0.54 0.51 0.45 0.49 0.57 0.53 0.55 0.64 0.79 1.03 1.34 1.62 1.90 2.25
0.41 0.40 0.38 0.41 0.52 0.71 0.70 0.64 0.56 0.60 0.81 1.00 1.20 1.04 0.85 0.86 1.11 1.38 1.45 1.35 1.01 0.87 1.02 1.10 0.72 0.59 0.60 0.63 0.66 0.58 0.54 0.57 0.66 0.85 1.10 1.33 1.57 1.84
0.44 0.40 0.40 0.41 0.55 0.79 0.80 0.66 0.50 0.46 0.56 0.84 1.11 1.23 1.22 1.27 1.45 1.77 1.90 1.74 1.34 0.91 0.94 1.15 1.01 0.85 0.87 0.91 0.83 0.70 0.57 0.57 0.61 0.73 0.87 1.02 1.26 1.58
0.52 0.45 0.49 0.57 0.68 0.81 0.76 0.71 0.77 0.61 0.52 0.55 0.62 0.74 0.84 0.93 1.18 1.47 1.71 1.76 1.48 1.31 1.07 1.14 1.26 1.24 1.35 1.19 1.03 0.79 0.59 0.56 0.59 0.64 0.69 0.77 0.97 1.13
0.60 0.55 0.49 0.64 0.71 0.76 0.82 0.80 0.97 0.90 0.73 0.72 0.67 0.62 0.62 0.73 0.88 1.17 1.53 1.75 1.71 1.47 1.20 1.40 1.66 1.47 1.46 1.30 1.14 1.04 0.74 0.55 0.54 0.62 0.66 0.67 0.76 0.84
0.53 0.46 0.48 0.66 0.75 0.82 0.79 0.82 0.90 0.85 0.74 0.67 0.59 0.55 0.57 0.64 0.73 0.91 1.23 1.44 1.47 1.34 1.13 1.40 1.90 1.68 1.51 1.25 1.12 1.18 1.02 0.75 0.60 0.60 0.63 0.78 0.81 0.80
0.51 0.59 0.65 0.74 0.75 0.67 0.67 0.75 0.74 0.67 0.75 0.74 0.61 0.54 0.57 0.67 0.72 0.77 0.91 1.18 1.33 1.29 1.22 1.29 1.64 1.73 1.67 1.41 1.10 1.12 1.19 1.07 0.81 0.73 0.70 0.69 0.64 0.62
0.70 0.71 0.77 0.75 0.67 0.57 0.56 0.57 0.53 0.57 0.70 0.74 0.63 0.53 0.51 0.58 0.69 0.80 0.89 1.05 1.26 1.29 1.29 1.36 1.60 1.91 1.83 1.39 1.19 1.11 1.07 1.21 1.08 0.92 0.82 0.75 0.64 0.49
0.89 0.94 0.84 0.75 0.71 0.60 0.49 0.41 0.40 0.51 0.61 0.59 0.60 0.58 0.55 0.57 0.62 0.73 0.93 1.07 1.22 1.26 1.35 1.50 1.65 1.83 1.89 1.80 1.60 1.23 1.01 0.98 1.04 1.03 0.98 0.94 0.83 0.64
0.99 0.95 0.74 0.61 0.57 0.53 0.50 0.45 0.39 0.39 0.43 0.52 0.59 0.62 0.64 0.65 0.65 0.68 0.83 1.03 1.18 1.23 1.30 1.42 1.62 1.81 1.96 2.03 1.83 1.44 1.12 0.98 1.05 1.14 1.09 1.07 1.04 0.85
0.85 0.71 0.58 0.52 0.48 0.47 0.45 0.43 0.39 0.35 0.40 0.47 0.52 0.56 0.62 0.66 0.67 0.68 0.74 0.88 1.05 1.17 1.27 1.35 1.50 1.68 1.80 1.93 2.01 1.68 1.36 1.12 1.10 1.29 1.30 1.14 1.04 0.93
0.65 0.58 0.54 0.49 0.47 0.48 0.48 0.47 0.44 0.42 0.44 0.45 0.46 0.48 0.53 0.61 0.64 0.63 0.67 0.79 0.94 1.07 1.16 1.25 1.42 1.60 1.72 1.67 1.75 1.79 1.70 1.40 1.20 1.32 1.42 1.33 1.21 1.16
0.56 0.55 0.53 0.52 0.52 0.51 0.51 0.50 0.51 0.50 0.47 0.48 0.47 0.46 0.45 0.51 0.54 0.52 0.57 0.67 0.82 0.95 1.03 1.06 1.19 1.38 1.59 1.60 1.52 1.49 1.69 1.72 1.41 1.35 1.45 1.50 1.46 1.36
0.50 0.54 0.55 0.56 0.56 0.57 0.56 0.55 0.55 0.53 0.51 0.50 0.46 0.44 0.43 0.45 0.48 0.48 0.52 0.59 0.65 0.76 0.89 0.97 1.07 1.29 1.56 1.70 1.61 1.47 1.55 1.72 1.74 1.56 1.48 1.49 1.57 1.50
0.57 0.58 0.57 0.57 0.58 0.59 0.59 0.56 0.54 0.49 0.46 0.46 0.45 0.43 0.42 0.43 0.43 0.45 0.48 0.51 0.59 0.65 0.75 0.90 1.04 1.18 1.40 1.59 1.69 1.60 1.49 1.53 1.62 1.66 1.77 1.59 1.23 1.01